Year,Month,Day,Hour,Minute,Value (Times are PST for temperature in C)
2013,07,14,00,00,19.20
2013,07,14,00,01,19.20
2013,07,14,00,02,19.20
2013,07,14,00,03,19.20
2013,07,14,00,04,19.20
2013,07,14,00,05,19.20
2013,07,14,00,06,19.20
2013,07,14,00,07,19.20
2013,07,14,00,08,19.20
2013,07,14,00,09,19.20
2013,07,14,00,10,19.20
2013,07,14,00,11,19.20
2013,07,14,00,12,19.20
2013,07,14,00,13,19.20
2013,07,14,00,14,19.10
2013,07,14,00,15,19.10
2013,07,14,00,16,19.10
2013,07,14,00,17,19.10
2013,07,14,00,18,19.10
2013,07,14,00,19,19.10
2013,07,14,00,20,19.10
2013,07,14,00,21,19.10
2013,07,14,00,22,19.10
2013,07,14,00,23,19.10
2013,07,14,00,24,19.10
2013,07,14,00,25,19.10
2013,07,14,00,26,19.00
2013,07,14,00,27,19.10
2013,07,14,00,28,19.00
2013,07,14,00,29,19.00
2013,07,14,00,30,19.00
2013,07,14,00,31,19.00
2013,07,14,00,32,19.00
2013,07,14,00,33,19.00
2013,07,14,00,34,19.00
2013,07,14,00,35,18.90
2013,07,14,00,36,19.00
2013,07,14,00,37,18.90
2013,07,14,00,38,18.90
2013,07,14,00,39,18.90
2013,07,14,00,40,18.90
2013,07,14,00,41,18.90
2013,07,14,00,42,18.90
2013,07,14,00,43,18.90
2013,07,14,00,44,18.90
2013,07,14,00,45,18.90
2013,07,14,00,46,18.90
2013,07,14,00,47,18.90
2013,07,14,00,48,18.90
2013,07,14,00,49,18.90
2013,07,14,00,50,18.90
2013,07,14,00,51,18.90
2013,07,14,00,52,18.90
2013,07,14,00,53,18.90
2013,07,14,00,54,18.90
2013,07,14,00,55,18.90
2013,07,14,00,56,18.90
2013,07,14,00,57,18.80
2013,07,14,00,58,18.80
2013,07,14,00,59,18.80
2013,07,14,01,00,18.80
2013,07,14,01,01,18.80
2013,07,14,01,02,18.80
2013,07,14,01,03,18.80
2013,07,14,01,04,18.80
2013,07,14,01,05,18.80
2013,07,14,01,06,18.80
2013,07,14,01,07,18.80
2013,07,14,01,08,18.80
2013,07,14,01,09,18.80
2013,07,14,01,10,18.80
2013,07,14,01,11,18.80
2013,07,14,01,12,18.70
2013,07,14,01,13,18.70
2013,07,14,01,14,18.70
2013,07,14,01,15,18.70
2013,07,14,01,16,18.70
2013,07,14,01,17,18.70
2013,07,14,01,18,18.70
2013,07,14,01,19,18.70
2013,07,14,01,20,18.70
2013,07,14,01,21,18.60
2013,07,14,01,22,18.60
2013,07,14,01,23,18.50
2013,07,14,01,24,18.40
2013,07,14,01,25,18.40
2013,07,14,01,26,18.30
2013,07,14,01,27,18.20
2013,07,14,01,28,18.20
2013,07,14,01,29,18.30
2013,07,14,01,30,18.30
2013,07,14,01,31,18.30
2013,07,14,01,32,18.30
2013,07,14,01,33,18.30
2013,07,14,01,34,18.40
2013,07,14,01,35,18.40
2013,07,14,01,36,18.40
2013,07,14,01,37,18.40
2013,07,14,01,38,18.50
2013,07,14,01,39,18.50
2013,07,14,01,40,18.50
2013,07,14,01,41,18.50
2013,07,14,01,42,18.60
2013,07,14,01,43,18.60
2013,07,14,01,44,18.60
2013,07,14,01,45,18.70
2013,07,14,01,46,18.70
2013,07,14,01,47,18.70
2013,07,14,01,48,18.70
2013,07,14,01,49,18.70
2013,07,14,01,50,18.70
2013,07,14,01,51,18.70
2013,07,14,01,52,18.70
2013,07,14,01,53,18.80
2013,07,14,01,54,18.80
2013,07,14,01,55,18.70
2013,07,14,01,56,18.70
2013,07,14,01,57,18.70
2013,07,14,01,58,18.70
2013,07,14,01,59,18.70
2013,07,14,02,00,18.70
2013,07,14,02,01,18.70
2013,07,14,02,02,18.70
2013,07,14,02,03,18.70
2013,07,14,02,04,18.60
2013,07,14,02,05,18.60
2013,07,14,02,06,18.60
2013,07,14,02,07,18.60
2013,07,14,02,08,18.60
2013,07,14,02,09,18.60
2013,07,14,02,10,18.60
2013,07,14,02,11,18.60
2013,07,14,02,12,18.60
2013,07,14,02,13,18.60
2013,07,14,02,14,18.50
2013,07,14,02,15,18.50
2013,07,14,02,16,18.50
2013,07,14,02,17,18.50
2013,07,14,02,18,18.40
2013,07,14,02,19,18.40
2013,07,14,02,20,18.40
2013,07,14,02,21,18.40
2013,07,14,02,22,18.40
2013,07,14,02,23,18.40
2013,07,14,02,24,18.40
2013,07,14,02,25,18.40
2013,07,14,02,26,18.30
2013,07,14,02,27,18.30
2013,07,14,02,28,18.30
2013,07,14,02,29,18.30
2013,07,14,02,30,18.30
2013,07,14,02,31,18.30
2013,07,14,02,32,18.30
2013,07,14,02,33,18.30
2013,07,14,02,34,18.30
2013,07,14,02,35,18.30
2013,07,14,02,36,18.30
2013,07,14,02,37,18.30
2013,07,14,02,38,18.30
2013,07,14,02,39,18.30
2013,07,14,02,40,18.30
2013,07,14,02,41,18.30
2013,07,14,02,42,18.30
2013,07,14,02,43,18.30
2013,07,14,02,44,18.30
2013,07,14,02,45,18.30
2013,07,14,02,46,18.30
2013,07,14,02,47,18.20
2013,07,14,02,48,18.20
2013,07,14,02,49,18.20
2013,07,14,02,50,18.20
2013,07,14,02,51,18.20
2013,07,14,02,52,18.20
2013,07,14,02,53,18.20
2013,07,14,02,54,18.10
2013,07,14,02,55,18.10
2013,07,14,02,56,18.10
2013,07,14,02,57,18.10
2013,07,14,02,58,18.10
2013,07,14,02,59,18.10
2013,07,14,03,00,18.00
2013,07,14,03,01,18.00
2013,07,14,03,02,18.00
2013,07,14,03,03,18.00
2013,07,14,03,04,18.00
2013,07,14,03,05,18.00
2013,07,14,03,06,17.90
2013,07,14,03,07,17.90
2013,07,14,03,08,17.90
2013,07,14,03,09,17.90
2013,07,14,03,10,17.90
2013,07,14,03,11,17.90
2013,07,14,03,12,17.90
2013,07,14,03,13,17.90
2013,07,14,03,14,17.90
2013,07,14,03,15,17.90
2013,07,14,03,16,17.90
2013,07,14,03,17,17.90
2013,07,14,03,18,17.90
2013,07,14,03,19,17.90
2013,07,14,03,20,17.90
2013,07,14,03,21,17.80
2013,07,14,03,22,17.80
2013,07,14,03,23,17.80
2013,07,14,03,24,17.80
2013,07,14,03,25,17.80
2013,07,14,03,26,17.80
2013,07,14,03,27,17.80
2013,07,14,03,28,17.80
2013,07,14,03,29,17.80
2013,07,14,03,30,17.70
2013,07,14,03,31,17.70
2013,07,14,03,32,17.70
2013,07,14,03,33,17.70
2013,07,14,03,34,17.70
2013,07,14,03,35,17.70
2013,07,14,03,36,17.70
2013,07,14,03,37,17.70
2013,07,14,03,38,17.70
2013,07,14,03,39,17.70
2013,07,14,03,40,17.70
2013,07,14,03,41,17.70
2013,07,14,03,42,17.70
2013,07,14,03,43,17.70
2013,07,14,03,44,17.70
2013,07,14,03,45,17.70
2013,07,14,03,46,17.60
2013,07,14,03,47,17.60
2013,07,14,03,48,17.60
2013,07,14,03,49,17.60
2013,07,14,03,50,17.60
2013,07,14,03,51,17.60
2013,07,14,03,52,17.60
2013,07,14,03,53,17.60
2013,07,14,03,54,17.60
2013,07,14,03,55,17.60
2013,07,14,03,56,17.60
2013,07,14,03,57,17.60
2013,07,14,03,58,17.60
2013,07,14,03,59,17.60
2013,07,14,04,00,17.60
2013,07,14,04,01,17.60
2013,07,14,04,02,17.50
2013,07,14,04,03,17.50
2013,07,14,04,04,17.50
2013,07,14,04,05,17.50
2013,07,14,04,06,17.50
2013,07,14,04,07,17.50
2013,07,14,04,08,17.50
2013,07,14,04,09,17.50
2013,07,14,04,10,17.40
2013,07,14,04,11,17.40
2013,07,14,04,12,17.40
2013,07,14,04,13,17.40
2013,07,14,04,14,17.40
2013,07,14,04,15,17.40
2013,07,14,04,16,17.40
2013,07,14,04,17,17.40
2013,07,14,04,18,17.40
2013,07,14,04,19,17.40
2013,07,14,04,20,17.40
2013,07,14,04,21,17.40
2013,07,14,04,22,17.40
2013,07,14,04,23,17.40
2013,07,14,04,24,17.40
2013,07,14,04,25,17.40
2013,07,14,04,26,17.40
2013,07,14,04,27,17.40
2013,07,14,04,28,17.40
2013,07,14,04,29,17.40
2013,07,14,04,30,17.30
2013,07,14,04,31,17.30
2013,07,14,04,32,17.30
2013,07,14,04,33,17.30
2013,07,14,04,34,17.30
2013,07,14,04,35,17.30
2013,07,14,04,36,17.30
2013,07,14,04,37,17.30
2013,07,14,04,38,17.30
2013,07,14,04,39,17.30
2013,07,14,04,40,17.30
2013,07,14,04,41,17.30
2013,07,14,04,42,17.30
2013,07,14,04,43,17.30
2013,07,14,04,44,17.30
2013,07,14,04,45,17.30
2013,07,14,04,46,17.30
2013,07,14,04,47,17.30
2013,07,14,04,48,17.30
2013,07,14,04,49,17.30
2013,07,14,04,50,17.30
2013,07,14,04,51,17.30
2013,07,14,04,52,17.30
2013,07,14,04,53,17.30
2013,07,14,04,54,17.30
2013,07,14,04,55,17.30
2013,07,14,04,56,17.20
2013,07,14,04,57,17.20
2013,07,14,04,58,17.20
2013,07,14,04,59,17.20
2013,07,14,05,00,17.20
2013,07,14,05,01,17.20
2013,07,14,05,02,17.20
2013,07,14,05,03,17.20
2013,07,14,05,04,17.20
2013,07,14,05,05,17.10
2013,07,14,05,06,17.10
2013,07,14,05,07,17.10
2013,07,14,05,08,17.10
2013,07,14,05,09,17.10
2013,07,14,05,10,17.10
2013,07,14,05,11,17.00
2013,07,14,05,12,17.00
2013,07,14,05,13,17.00
2013,07,14,05,14,16.90
2013,07,14,05,15,16.90
2013,07,14,05,16,16.90
2013,07,14,05,17,16.90
2013,07,14,05,18,16.90
2013,07,14,05,19,16.80
2013,07,14,05,20,16.80
2013,07,14,05,21,16.80
2013,07,14,05,22,16.80
2013,07,14,05,23,16.80
2013,07,14,05,24,16.80
2013,07,14,05,25,16.80
2013,07,14,05,26,16.70
2013,07,14,05,27,16.70
2013,07,14,05,28,16.70
2013,07,14,05,29,16.70
2013,07,14,05,30,16.70
2013,07,14,05,31,16.70
2013,07,14,05,32,16.70
2013,07,14,05,33,16.60
2013,07,14,05,34,16.60
2013,07,14,05,35,16.60
2013,07,14,05,36,16.60
2013,07,14,05,37,16.60
2013,07,14,05,38,16.60
2013,07,14,05,39,16.60
2013,07,14,05,40,16.60
2013,07,14,05,41,16.60
2013,07,14,05,42,16.50
2013,07,14,05,43,16.50
2013,07,14,05,44,16.50
2013,07,14,05,45,16.50
2013,07,14,05,46,16.50
2013,07,14,05,47,16.50
2013,07,14,05,48,16.50
2013,07,14,05,49,16.40
2013,07,14,05,50,16.50
2013,07,14,05,51,16.40
2013,07,14,05,52,16.40
2013,07,14,05,53,16.40
2013,07,14,05,54,16.40
2013,07,14,05,55,16.40
2013,07,14,05,56,16.40
2013,07,14,05,57,16.40
2013,07,14,05,58,16.40
2013,07,14,05,59,16.40
2013,07,14,06,00,16.40
2013,07,14,06,01,16.40
2013,07,14,06,02,16.40
2013,07,14,06,03,16.40
2013,07,14,06,04,16.30
2013,07,14,06,05,16.30
2013,07,14,06,06,16.30
2013,07,14,06,07,16.30
2013,07,14,06,08,16.30
2013,07,14,06,09,16.30
2013,07,14,06,10,16.30
2013,07,14,06,11,16.30
2013,07,14,06,12,16.30
2013,07,14,06,13,16.30
2013,07,14,06,14,16.30
2013,07,14,06,15,16.30
2013,07,14,06,16,16.30
2013,07,14,06,17,16.30
2013,07,14,06,18,16.30
2013,07,14,06,19,16.30
2013,07,14,06,20,16.30
2013,07,14,06,21,16.30
2013,07,14,06,22,16.30
2013,07,14,06,23,16.30
2013,07,14,06,24,16.30
2013,07,14,06,25,16.30
2013,07,14,06,26,16.30
2013,07,14,06,27,16.30
2013,07,14,06,28,16.30
2013,07,14,06,29,16.30
2013,07,14,06,30,16.30
2013,07,14,06,31,16.30
2013,07,14,06,32,16.30
2013,07,14,06,33,16.30
2013,07,14,06,34,16.30
2013,07,14,06,35,16.30
2013,07,14,06,36,16.30
2013,07,14,06,37,16.30
2013,07,14,06,38,16.30
2013,07,14,06,39,16.30
2013,07,14,06,40,16.30
2013,07,14,06,41,16.30
2013,07,14,06,42,16.30
2013,07,14,06,43,16.30
2013,07,14,06,44,16.30
2013,07,14,06,45,16.30
2013,07,14,06,46,16.40
2013,07,14,06,47,16.40
2013,07,14,06,48,16.40
2013,07,14,06,49,16.50
2013,07,14,06,50,16.50
2013,07,14,06,51,16.50
2013,07,14,06,52,16.60
2013,07,14,06,53,16.60
2013,07,14,06,54,16.60
2013,07,14,06,55,16.70
2013,07,14,06,56,16.70
2013,07,14,06,57,16.70
2013,07,14,06,58,16.70
2013,07,14,06,59,16.80
2013,07,14,07,00,16.80
2013,07,14,07,01,16.80
2013,07,14,07,02,16.80
2013,07,14,07,03,16.80
2013,07,14,07,04,16.80
2013,07,14,07,05,16.80
2013,07,14,07,06,16.80
2013,07,14,07,07,16.80
2013,07,14,07,08,16.80
2013,07,14,07,09,16.90
2013,07,14,07,10,16.90
2013,07,14,07,11,16.90
2013,07,14,07,12,16.90
2013,07,14,07,13,16.90
2013,07,14,07,14,16.90
2013,07,14,07,15,16.90
2013,07,14,07,16,16.90
2013,07,14,07,17,16.90
2013,07,14,07,18,16.90
2013,07,14,07,19,16.90
2013,07,14,07,20,16.90
2013,07,14,07,21,16.90
2013,07,14,07,22,17.00
2013,07,14,07,23,17.00
2013,07,14,07,24,17.00
2013,07,14,07,25,17.00
2013,07,14,07,26,17.10
2013,07,14,07,27,17.10
2013,07,14,07,28,17.10
2013,07,14,07,29,17.20
2013,07,14,07,30,17.20
2013,07,14,07,31,17.20
2013,07,14,07,32,17.20
2013,07,14,07,33,17.20
2013,07,14,07,34,17.20
2013,07,14,07,35,17.20
2013,07,14,07,36,17.20
2013,07,14,07,37,17.20
2013,07,14,07,38,17.30
2013,07,14,07,39,17.30
2013,07,14,07,40,17.30
2013,07,14,07,41,17.30
2013,07,14,07,42,17.30
2013,07,14,07,43,17.30
2013,07,14,07,44,17.30
2013,07,14,07,45,17.30
2013,07,14,07,46,17.30
2013,07,14,07,47,17.30
2013,07,14,07,48,17.30
2013,07,14,07,49,17.30
2013,07,14,07,50,17.30
2013,07,14,07,51,17.30
2013,07,14,07,52,17.30
2013,07,14,07,53,17.30
2013,07,14,07,54,17.30
2013,07,14,07,55,17.40
2013,07,14,07,56,17.40
2013,07,14,07,57,17.40
2013,07,14,07,58,17.40
2013,07,14,07,59,17.40
2013,07,14,08,00,17.50
2013,07,14,08,01,17.50
2013,07,14,08,02,17.50
2013,07,14,08,03,17.60
2013,07,14,08,04,17.60
2013,07,14,08,05,17.70
2013,07,14,08,06,17.70
2013,07,14,08,07,17.70
2013,07,14,08,08,17.70
2013,07,14,08,09,17.70
2013,07,14,08,10,17.70
2013,07,14,08,11,17.70
2013,07,14,08,12,17.70
2013,07,14,08,13,17.70
2013,07,14,08,14,17.70
2013,07,14,08,15,17.70
2013,07,14,08,16,17.80
2013,07,14,08,17,17.80
2013,07,14,08,18,17.80
2013,07,14,08,19,17.80
2013,07,14,08,20,17.70
2013,07,14,08,21,17.70
2013,07,14,08,22,17.70
2013,07,14,08,23,17.70
2013,07,14,08,24,17.70
2013,07,14,08,25,17.70
2013,07,14,08,26,17.70
2013,07,14,08,27,17.70
2013,07,14,08,28,17.70
2013,07,14,08,29,17.70
2013,07,14,08,30,17.70
2013,07,14,08,31,17.70
2013,07,14,08,32,17.70
2013,07,14,08,33,17.70
2013,07,14,08,34,17.70
2013,07,14,08,35,17.70
2013,07,14,08,36,17.70
2013,07,14,08,37,17.70
2013,07,14,08,38,17.70
2013,07,14,08,39,17.80
2013,07,14,08,40,17.80
2013,07,14,08,41,17.80
2013,07,14,08,42,17.80
2013,07,14,08,43,17.80
2013,07,14,08,44,17.80
2013,07,14,08,45,17.70
2013,07,14,08,46,17.70
2013,07,14,08,47,17.80
2013,07,14,08,48,17.80
2013,07,14,08,49,17.80
2013,07,14,08,50,17.80
2013,07,14,08,51,17.90
2013,07,14,08,52,17.90
2013,07,14,08,53,17.90
2013,07,14,08,54,17.90
2013,07,14,08,55,17.90
2013,07,14,08,56,17.90
2013,07,14,08,57,17.90
2013,07,14,08,58,17.90
2013,07,14,08,59,18.00
2013,07,14,09,00,18.00
2013,07,14,09,01,18.00
2013,07,14,09,02,18.00
2013,07,14,09,03,18.10
2013,07,14,09,04,18.10
2013,07,14,09,05,18.10
2013,07,14,09,06,18.10
2013,07,14,09,07,18.10
2013,07,14,09,08,18.10
2013,07,14,09,09,18.10
2013,07,14,09,10,18.10
2013,07,14,09,11,18.20
2013,07,14,09,12,18.20
2013,07,14,09,13,18.10
2013,07,14,09,14,18.10
2013,07,14,09,15,18.10
2013,07,14,09,16,18.10
2013,07,14,09,17,18.10
2013,07,14,09,18,18.10
2013,07,14,09,19,18.20
2013,07,14,09,20,18.30
2013,07,14,09,21,18.30
2013,07,14,09,22,18.30
2013,07,14,09,23,18.40
2013,07,14,09,24,18.40
2013,07,14,09,25,18.50
2013,07,14,09,26,18.50
2013,07,14,09,27,18.60
2013,07,14,09,28,18.60
2013,07,14,09,29,18.60
2013,07,14,09,30,18.60
2013,07,14,09,31,18.50
2013,07,14,09,32,18.50
2013,07,14,09,33,18.50
2013,07,14,09,34,18.40
2013,07,14,09,35,18.40
2013,07,14,09,36,18.30
2013,07,14,09,37,18.30
2013,07,14,09,38,18.40
2013,07,14,09,39,18.30
2013,07,14,09,40,18.30
2013,07,14,09,41,18.20
2013,07,14,09,42,18.20
2013,07,14,09,43,18.10
2013,07,14,09,44,18.10
2013,07,14,09,45,18.00
2013,07,14,09,46,18.00
2013,07,14,09,47,18.00
2013,07,14,09,48,18.10
2013,07,14,09,49,18.10
2013,07,14,09,50,18.20
2013,07,14,09,51,18.30
2013,07,14,09,52,18.30
2013,07,14,09,53,18.30
2013,07,14,09,54,18.30
2013,07,14,09,55,18.40
2013,07,14,09,56,18.40
2013,07,14,09,57,18.40
2013,07,14,09,58,18.40
2013,07,14,09,59,18.30
2013,07,14,10,00,18.20
2013,07,14,10,01,18.20
2013,07,14,10,02,18.20
2013,07,14,10,03,18.20
2013,07,14,10,04,18.30
2013,07,14,10,05,18.30
2013,07,14,10,06,18.30
2013,07,14,10,07,18.30
2013,07,14,10,08,18.40
2013,07,14,10,09,18.40
2013,07,14,10,10,18.40
2013,07,14,10,11,18.40
2013,07,14,10,12,18.50
2013,07,14,10,13,18.50
2013,07,14,10,14,18.60
2013,07,14,10,15,18.70
2013,07,14,10,16,18.80
2013,07,14,10,17,18.80
2013,07,14,10,18,18.90
2013,07,14,10,19,19.00
2013,07,14,10,20,19.00
2013,07,14,10,21,19.00
2013,07,14,10,22,19.00
2013,07,14,10,23,18.90
2013,07,14,10,24,18.90
2013,07,14,10,25,18.80
2013,07,14,10,26,18.80
2013,07,14,10,27,18.80
2013,07,14,10,28,18.80
2013,07,14,10,29,18.90
2013,07,14,10,30,18.90
2013,07,14,10,31,18.90
2013,07,14,10,32,18.90
2013,07,14,10,33,18.90
2013,07,14,10,34,18.90
2013,07,14,10,35,18.90
2013,07,14,10,36,18.90
2013,07,14,10,37,18.90
2013,07,14,10,38,18.90
2013,07,14,10,39,18.90
2013,07,14,10,40,18.90
2013,07,14,10,41,19.00
2013,07,14,10,42,19.00
2013,07,14,10,43,19.10
2013,07,14,10,44,19.10
2013,07,14,10,45,19.20
2013,07,14,10,46,19.20
2013,07,14,10,47,19.10
2013,07,14,10,48,19.00
2013,07,14,10,49,19.00
2013,07,14,10,50,19.00
2013,07,14,10,51,19.00
2013,07,14,10,52,19.00
2013,07,14,10,53,19.00
2013,07,14,10,54,19.00
2013,07,14,10,55,19.10
2013,07,14,10,56,19.10
2013,07,14,10,57,19.10
2013,07,14,10,58,19.10
2013,07,14,10,59,19.10
2013,07,14,11,00,19.10
2013,07,14,11,01,19.20
2013,07,14,11,02,19.20
2013,07,14,11,03,19.20
2013,07,14,11,04,19.20
2013,07,14,11,05,19.20
2013,07,14,11,06,19.20
2013,07,14,11,07,19.30
2013,07,14,11,08,19.30
2013,07,14,11,09,19.30
2013,07,14,11,10,19.40
2013,07,14,11,11,19.40
2013,07,14,11,12,19.40
2013,07,14,11,13,19.40
2013,07,14,11,14,19.40
2013,07,14,11,15,19.40
2013,07,14,11,16,19.50
2013,07,14,11,17,19.50
2013,07,14,11,18,19.50
2013,07,14,11,19,19.50
2013,07,14,11,20,19.60
2013,07,14,11,21,19.60
2013,07,14,11,22,19.60
2013,07,14,11,23,19.70
2013,07,14,11,24,19.80
2013,07,14,11,25,19.90
2013,07,14,11,26,20.00
2013,07,14,11,27,20.10
2013,07,14,11,28,20.20
2013,07,14,11,29,20.20
2013,07,14,11,30,20.20
2013,07,14,11,31,20.30
2013,07,14,11,32,20.40
2013,07,14,11,33,20.50
2013,07,14,11,34,20.60
2013,07,14,11,35,20.70
2013,07,14,11,36,20.70
2013,07,14,11,37,20.70
2013,07,14,11,38,20.60
2013,07,14,11,39,20.60
2013,07,14,11,40,20.60
2013,07,14,11,41,20.50
2013,07,14,11,42,20.50
2013,07,14,11,43,20.40
2013,07,14,11,44,20.40
2013,07,14,11,45,20.30
2013,07,14,11,46,20.40
2013,07,14,11,47,20.40
2013,07,14,11,48,20.40
2013,07,14,11,49,20.50
2013,07,14,11,50,20.50
2013,07,14,11,51,20.40
2013,07,14,11,52,20.40
2013,07,14,11,53,20.40
2013,07,14,11,54,20.40
2013,07,14,11,55,20.30
2013,07,14,11,56,20.40
2013,07,14,11,57,20.40
2013,07,14,11,58,20.40
2013,07,14,11,59,20.50
2013,07,14,12,00,20.50
2013,07,14,12,01,20.60
2013,07,14,12,02,20.50
2013,07,14,12,03,20.50
2013,07,14,12,04,20.60
2013,07,14,12,05,20.60
2013,07,14,12,06,20.60
2013,07,14,12,07,20.60
2013,07,14,12,08,20.60
2013,07,14,12,09,20.50
2013,07,14,12,10,20.50
2013,07,14,12,11,20.40
2013,07,14,12,12,20.40
2013,07,14,12,13,20.40
2013,07,14,12,14,20.40
2013,07,14,12,15,20.40
2013,07,14,12,16,20.40
2013,07,14,12,17,20.40
2013,07,14,12,18,20.40
2013,07,14,12,19,20.50
2013,07,14,12,20,20.50
2013,07,14,12,21,20.60
2013,07,14,12,22,20.60
2013,07,14,12,23,20.70
2013,07,14,12,24,20.70
2013,07,14,12,25,20.60
2013,07,14,12,26,20.60
2013,07,14,12,27,20.60
2013,07,14,12,28,20.50
2013,07,14,12,29,20.50
2013,07,14,12,30,20.60
2013,07,14,12,31,20.60
2013,07,14,12,32,20.60
2013,07,14,12,33,20.60
2013,07,14,12,34,20.60
2013,07,14,12,35,20.60
2013,07,14,12,36,20.60
2013,07,14,12,37,20.60
2013,07,14,12,38,20.60
2013,07,14,12,39,20.60
2013,07,14,12,40,20.70
2013,07,14,12,41,20.80
2013,07,14,12,42,21.00
2013,07,14,12,43,21.00
2013,07,14,12,44,21.10
2013,07,14,12,45,21.20
2013,07,14,12,46,21.20
2013,07,14,12,47,21.30
2013,07,14,12,48,21.30
2013,07,14,12,49,21.30
2013,07,14,12,50,21.30
2013,07,14,12,51,21.30
2013,07,14,12,52,21.40
2013,07,14,12,53,21.40
2013,07,14,12,54,21.50
2013,07,14,12,55,21.50
2013,07,14,12,56,21.50
2013,07,14,12,57,21.50
2013,07,14,12,58,21.50
2013,07,14,12,59,21.50
2013,07,14,13,00,21.60
2013,07,14,13,01,21.50
2013,07,14,13,02,21.50
2013,07,14,13,03,21.40
2013,07,14,13,04,21.40
2013,07,14,13,05,21.40
2013,07,14,13,06,21.50
2013,07,14,13,07,21.50
2013,07,14,13,08,21.60
2013,07,14,13,09,21.60
2013,07,14,13,10,21.50
2013,07,14,13,11,21.40
2013,07,14,13,12,21.40
2013,07,14,13,13,21.30
2013,07,14,13,14,21.30
2013,07,14,13,15,21.30
2013,07,14,13,16,21.30
2013,07,14,13,17,21.20
2013,07,14,13,18,21.20
2013,07,14,13,19,21.10
2013,07,14,13,20,21.20
2013,07,14,13,21,21.20
2013,07,14,13,22,21.20
2013,07,14,13,23,21.30
2013,07,14,13,24,21.30
2013,07,14,13,25,21.30
2013,07,14,13,26,21.30
2013,07,14,13,27,21.30
2013,07,14,13,28,21.30
2013,07,14,13,29,21.30
2013,07,14,13,30,21.40
2013,07,14,13,31,21.40
2013,07,14,13,32,21.40
2013,07,14,13,33,21.30
2013,07,14,13,34,21.20
2013,07,14,13,35,21.10
2013,07,14,13,36,21.10
2013,07,14,13,37,21.20
2013,07,14,13,38,21.30
2013,07,14,13,39,21.40
2013,07,14,13,40,21.50
2013,07,14,13,41,21.60
2013,07,14,13,42,21.70
2013,07,14,13,43,21.80
2013,07,14,13,44,21.80
2013,07,14,13,45,21.80
2013,07,14,13,46,21.90
2013,07,14,13,47,21.90
2013,07,14,13,48,21.90
2013,07,14,13,49,21.90
2013,07,14,13,50,21.80
2013,07,14,13,51,21.80
2013,07,14,13,52,21.70
2013,07,14,13,53,21.80
2013,07,14,13,54,21.80
2013,07,14,13,55,21.80
2013,07,14,13,56,21.90
2013,07,14,13,57,22.00
2013,07,14,13,58,22.10
2013,07,14,13,59,22.10
2013,07,14,14,00,22.00
2013,07,14,14,01,21.90
2013,07,14,14,02,21.80
2013,07,14,14,03,21.80
2013,07,14,14,04,21.70
2013,07,14,14,05,21.60
2013,07,14,14,06,21.50
2013,07,14,14,07,21.40
2013,07,14,14,08,21.30
2013,07,14,14,09,21.40
2013,07,14,14,10,21.40
2013,07,14,14,11,21.30
2013,07,14,14,12,21.30
2013,07,14,14,13,21.30
2013,07,14,14,14,21.20
2013,07,14,14,15,21.10
2013,07,14,14,16,21.10
2013,07,14,14,17,21.10
2013,07,14,14,18,21.00
2013,07,14,14,19,20.90
2013,07,14,14,20,20.80
2013,07,14,14,21,20.80
2013,07,14,14,22,20.70
2013,07,14,14,23,20.60
2013,07,14,14,24,20.60
2013,07,14,14,25,20.50
2013,07,14,14,26,20.50
2013,07,14,14,27,20.50
2013,07,14,14,28,20.50
2013,07,14,14,29,20.50
2013,07,14,14,30,20.50
2013,07,14,14,31,20.50
2013,07,14,14,32,20.60
2013,07,14,14,33,20.70
2013,07,14,14,34,20.70
2013,07,14,14,35,20.80
2013,07,14,14,36,20.80
2013,07,14,14,37,20.90
2013,07,14,14,38,20.90
2013,07,14,14,39,20.80
2013,07,14,14,40,20.70
2013,07,14,14,41,20.70
2013,07,14,14,42,20.60
2013,07,14,14,43,20.60
2013,07,14,14,44,20.60
2013,07,14,14,45,20.60
2013,07,14,14,46,20.60
2013,07,14,14,47,20.60
2013,07,14,14,48,20.70
2013,07,14,14,49,20.80
2013,07,14,14,50,20.80
2013,07,14,14,51,20.80
2013,07,14,14,52,20.80
2013,07,14,14,53,20.80
2013,07,14,14,54,20.80
2013,07,14,14,55,20.80
2013,07,14,14,56,20.70
2013,07,14,14,57,20.60
2013,07,14,14,58,20.50
2013,07,14,14,59,20.40
2013,07,14,15,00,20.40
2013,07,14,15,01,20.40
2013,07,14,15,02,20.30
2013,07,14,15,03,20.40
2013,07,14,15,04,20.50
2013,07,14,15,05,20.60
2013,07,14,15,06,20.60
2013,07,14,15,07,20.50
2013,07,14,15,08,20.60
2013,07,14,15,09,20.60
2013,07,14,15,10,20.70
2013,07,14,15,11,20.80
2013,07,14,15,12,20.90
2013,07,14,15,13,20.90
2013,07,14,15,14,20.90
2013,07,14,15,15,21.00
2013,07,14,15,16,21.10
2013,07,14,15,17,21.10
2013,07,14,15,18,21.20
2013,07,14,15,19,21.10
2013,07,14,15,20,21.10
2013,07,14,15,21,21.10
2013,07,14,15,22,21.10
2013,07,14,15,23,21.00
2013,07,14,15,24,21.00
2013,07,14,15,25,21.10
2013,07,14,15,26,21.20
2013,07,14,15,27,21.20
2013,07,14,15,28,21.20
2013,07,14,15,29,21.20
2013,07,14,15,30,21.20
2013,07,14,15,31,21.20
2013,07,14,15,32,21.20
2013,07,14,15,33,21.30
2013,07,14,15,34,21.40
2013,07,14,15,35,21.60
2013,07,14,15,36,21.60
2013,07,14,15,37,21.70
2013,07,14,15,38,21.50
2013,07,14,15,39,21.30
2013,07,14,15,40,21.10
2013,07,14,15,41,21.00
2013,07,14,15,42,20.90
2013,07,14,15,43,20.90
2013,07,14,15,44,20.90
2013,07,14,15,45,20.90
2013,07,14,15,46,20.90
2013,07,14,15,47,20.90
2013,07,14,15,48,20.90
2013,07,14,15,49,21.00
2013,07,14,15,50,21.00
2013,07,14,15,51,21.00
2013,07,14,15,52,21.00
2013,07,14,15,53,20.90
2013,07,14,15,54,21.00
2013,07,14,15,55,21.00
2013,07,14,15,56,21.10
2013,07,14,15,57,21.10
2013,07,14,15,58,21.20
2013,07,14,15,59,21.30
2013,07,14,16,00,21.30
2013,07,14,16,01,21.40
2013,07,14,16,02,21.50
2013,07,14,16,03,21.60
2013,07,14,16,04,21.60
2013,07,14,16,05,21.70
2013,07,14,16,06,21.80
2013,07,14,16,07,21.70
2013,07,14,16,08,21.70
2013,07,14,16,09,21.70
2013,07,14,16,10,21.70
2013,07,14,16,11,21.70
2013,07,14,16,12,21.70
2013,07,14,16,13,21.70
2013,07,14,16,14,21.70
2013,07,14,16,15,21.70
2013,07,14,16,16,21.70
2013,07,14,16,17,21.80
2013,07,14,16,18,21.80
2013,07,14,16,19,21.80
2013,07,14,16,20,21.90
2013,07,14,16,21,21.90
2013,07,14,16,22,21.90
2013,07,14,16,23,21.90
2013,07,14,16,24,22.00
2013,07,14,16,25,22.10
2013,07,14,16,26,22.20
2013,07,14,16,27,22.10
2013,07,14,16,28,22.00
2013,07,14,16,29,22.00
2013,07,14,16,30,22.00
2013,07,14,16,31,21.90
2013,07,14,16,32,21.80
2013,07,14,16,33,21.90
2013,07,14,16,34,21.90
2013,07,14,16,35,21.80
2013,07,14,16,36,21.80
2013,07,14,16,37,21.80
2013,07,14,16,38,21.80
2013,07,14,16,39,22.00
2013,07,14,16,40,22.10
2013,07,14,16,41,22.10
2013,07,14,16,42,22.00
2013,07,14,16,43,21.90
2013,07,14,16,44,21.90
2013,07,14,16,45,21.80
2013,07,14,16,46,21.80
2013,07,14,16,47,21.80
2013,07,14,16,48,21.90
2013,07,14,16,49,21.90
2013,07,14,16,50,22.00
2013,07,14,16,51,22.00
2013,07,14,16,52,22.00
2013,07,14,16,53,22.00
2013,07,14,16,54,22.00
2013,07,14,16,55,21.90
2013,07,14,16,56,21.90
2013,07,14,16,57,21.90
2013,07,14,16,58,21.90
2013,07,14,16,59,21.90
2013,07,14,17,00,21.90
2013,07,14,17,01,21.90
2013,07,14,17,02,22.00
2013,07,14,17,03,22.00
2013,07,14,17,04,22.00
2013,07,14,17,05,22.00
2013,07,14,17,06,22.00
2013,07,14,17,07,22.00
2013,07,14,17,08,22.00
2013,07,14,17,09,22.10
2013,07,14,17,10,22.20
2013,07,14,17,11,22.20
2013,07,14,17,12,22.10
2013,07,14,17,13,22.10
2013,07,14,17,14,22.00
2013,07,14,17,15,22.00
2013,07,14,17,16,21.90
2013,07,14,17,17,21.90
2013,07,14,17,18,22.00
2013,07,14,17,19,22.10